Regional Weather Roundup
Issued by NWS Burlington, VT

Home | Current Version | Previous Version | Text Only | Print | Product List | Glossary On
Versions: 1 2 3 4 5 6 7 8 9 10 11 12 13 14 15 16 17 18 19 20 21 22 23 24 25 26 27 28 29 30 31 32 33 34 35 36 37 38 39 40 41 42 43 44 45 46 47 48 49 50
000
ASUS41 KBTV 251210
RWRBTV
VERMONT REGIONAL WEATHER ROUNDUP
NATIONAL WEATHER SERVICE BURLINGTON VT
700 AM EST SAT NOV 25 2017

NOTE: "FAIR" INDICATES FEW OR NO CLOUDS BELOW 12,000 FEET WITH NO
SIGNIFICANT WEATHER AND/OR OBSTRUCTIONS TO VISIBILITY.

* THESE REPORTS ARE NOT UNDER NWS QUALITY CONTROL AND/OR DO NOT
  REPORT WEATHER SUCH AS PRECIPITATION AND FOG.

VTZ001>019-251300-
_____VERMONT_____


CITY           SKY/WX    TMP DP  RH WIND       PRES   REMARKS
BURLINGTON     CLOUDY    46  22  38 S22G32    29.61F
6HR MIN TEMP:  44; 6HR MAX TEMP:  46;

MONTPELIER     CLOUDY    36  27  69 VRB6      29.67S WCI  31
6HR MIN TEMP:  31; 6HR MAX TEMP:  38;

MORRISVILLE    PTCLDY    30  27  88 N6        29.62S WCI  24
6HR MIN TEMP:  23; 6HR MAX TEMP:  30;

ST. JOHNSBURY*   N/A     37  25  61 MISG      29.66S
6HR MIN TEMP:  28; 6HR MAX TEMP:  37;

LYNDONVILLE*   FAIR      34  24  66 SE6       29.67R WCI  29
6HR MIN TEMP:  32; 6HR MAX TEMP:  34;

MIDDLEBURY*    FAIR      38  24  57 S3        29.68S
6HR MIN TEMP:  37; 6HR MAX TEMP:  43;

RUTLAND*       CLOUDY    33  25  72 E6        29.68F WCI  28
6HR MIN TEMP:  32; 6HR MAX TEMP:  35;

SPRINGFIELD    CLOUDY    24  23  96 CALM      29.74F
6HR MIN TEMP:  23; 6HR MAX TEMP:  27;

HIGHGATE*      FAIR      45  24  44 S13G21    29.58R
6HR MIN TEMP:  43; 6HR MAX TEMP:  45;

NEWPORT*       FAIR      36  26  65 S10G16    29.61R WCI  29
6HR MIN TEMP:  34; 6HR MAX TEMP:  36;

BENNINGTON     CLEAR     35  22  58 N3        29.70S
6HR MIN TEMP:  34; 6HR MAX TEMP:  39;

SUTTON*          N/A     32 N/A N/A MISG        N/A

_____LAKE CHAMPLAIN_____


CITY           SKY/WX    TMP DP  RH WIND       PRES   REMARKS
BURTON ISLAND*   N/A     45  32  61 SW35G45     N/A
COLCHESTER RF*   N/A     45  32  61 S37         N/A
DIAMOND ISL*     N/A     41  28  60 S18         N/A

$$

NYZ007-026>031-035-052-083-087-251300-
_____NORTHERN NEW YORK_____


CITY           SKY/WX    TMP DP  RH WIND       PRES   REMARKS
PLATTSBURGH    CLOUDY    42  26  53 S10       29.58F
6HR MIN TEMP:  41; 6HR MAX TEMP:  42;

SARANAC LAKE   PTCLDY    40  26  57 SW9       29.55F
6HR MIN TEMP:  38; 6HR MAX TEMP:  41;

MASSENA        PTCLDY    50  29  44 S15       29.51F
6HR MIN TEMP:  47; 6HR MAX TEMP:  50;

OGDENSBURG*    FAIR      46  28  51 S9G16     29.51S
6HR MIN TEMP:  43; 6HR MAX TEMP:  46;

POTSDAM*       CLEAR     48  28  46 SW9       29.52S
WATERTOWN      CLOUDY    48  27  44 S10G23    29.53F
6HR MIN TEMP:  45; 6HR MAX TEMP:  49;

FT DRUM        CLOUDY    43  26  51 S14       29.53F
6HR MIN TEMP:  41; 6HR MAX TEMP:  46;

ALBANY         PTCLDY    40  25  55 S12       29.73S
6HR MIN TEMP:  39; 6HR MAX TEMP:  42;

GLENS FALLS    PTCLDY    32  23  69 CALM      29.71S
6HR MIN TEMP:  32; 6HR MAX TEMP:  38;


$$
NHZ002-005-011-251300-
_____NEW HAMPSHIRE_____


CITY           SKY/WX    TMP DP  RH WIND       PRES   REMARKS
LEBANON        PTCLDY    28  25  88 CALM      29.71F
6HR MIN TEMP:  26; 6HR MAX TEMP:  32;

KEENE          CLEAR     23  22  96 CALM      29.76F
6HR MIN TEMP:  23; 6HR MAX TEMP:  25;

PLYMOUTH       FAIR      22  21  97 CALM      29.75F
6HR MIN TEMP:  22; 6HR MAX TEMP:  25;

WHITEFIELD     CLEAR     20  19  96 CALM      29.66F
6HR MIN TEMP:  19; 6HR MAX TEMP:  24;


$$

_____REGIONAL QUEBEC LOCATIONS_____


CITY           SKY/WX    TMP DP  RH WIND       PRES   REMARKS
MONTREAL       MOCLDY    41  28  60 SE16      29.51F
QUEBEC CITY    MOCLDY    30  28  93 VRB2      29.52F
SHERBROOKE     PTCLDY    28  27  93 SE5       29.57F WCI  23

_____REGIONAL ONTARIO LOCATIONS_____


CITY           SKY/WX    TMP DP  RH WIND       PRES   REMARKS
OTTAWA         LGT RAIN  41  32  70 S10G18    29.48R

______KEY______
VSB  - VISIBILITY IN MILES
WCI  - WIND CHILL INDEX
HX   - HEAT INDEX
$$
NNNN



USA.gov is the U.S. government's official web portal to all federal, state and local government web resources and services.